Hiva Oa-Atuona Airport


Codes: NTMN/AUQ
Name: Hiva Oa-Atuona Airport
City: Hiva Oa Island
Country: French Polynesia
Elevation: 1481 ft.
Wikipedia:

Photos at Hiva Oa-Atuona Airport


   Photos courtesy of SpottingLog. You can add your own sightings and photos by signing up for a free trial today.



No photos found.

Weather at Hiva Oa-Atuona Airport


Time (UTC)DescriptionTempratureWindCloud coverageVisibilityPressureHumidity
21-Feb-2024 03:00Scattered Clouds25°C13 mph, E31%10000m1013hPa75%
21-Feb-2024 06:00Scattered Clouds25°C16 mph, E29%10000m1014hPa74%
21-Feb-2024 09:00Scattered Clouds25°C16 mph, E44%10000m1014hPa73%
21-Feb-2024 12:00Broken Clouds25°C18 mph, E72%10000m1012hPa66%
21-Feb-2024 15:00Overcast Clouds25°C18 mph, E90%10000m1014hPa71%
21-Feb-2024 18:00Overcast Clouds25°C22 mph, E91%10000m1015hPa71%
21-Feb-2024 21:00Broken Clouds25°C20 mph, E51%10000m1014hPa69%
22-Feb-2024 00:00Light Rain26°C18 mph, E75%10000m1012hPa71%
22-Feb-2024 03:00Overcast Clouds26°C18 mph, E100%10000m1013hPa74%
22-Feb-2024 06:00Overcast Clouds26°C20 mph, E94%10000m1015hPa71%
22-Feb-2024 09:00Overcast Clouds25°C18 mph, E98%10000m1015hPa73%
22-Feb-2024 12:00Light Rain25°C18 mph, E99%10000m1013hPa77%
22-Feb-2024 15:00Overcast Clouds25°C20 mph, E100%10000m1014hPa75%
22-Feb-2024 18:00Overcast Clouds25°C20 mph, E100%10000m1015hPa72%
22-Feb-2024 21:00Overcast Clouds25°C18 mph, E86%10000m1014hPa76%
23-Feb-2024 00:00Broken Clouds26°C18 mph, E79%10000m1011hPa73%
23-Feb-2024 03:00Light Rain26°C18 mph, E100%10000m1012hPa76%
23-Feb-2024 06:00Overcast Clouds26°C20 mph, E87%10000m1013hPa75%
23-Feb-2024 09:00Broken Clouds25°C16 mph, SE80%10000m1013hPa78%
23-Feb-2024 12:00Light Rain25°C20 mph, E87%10000m1011hPa78%
23-Feb-2024 15:00Light Rain25°C22 mph, E100%10000m1012hPa76%
23-Feb-2024 18:00Overcast Clouds25°C18 mph, E100%10000m1014hPa74%
23-Feb-2024 21:00Overcast Clouds25°C16 mph, E100%10000m1012hPa78%
24-Feb-2024 00:00Light Rain25°C16 mph, E100%10000m1009hPa77%
24-Feb-2024 03:00Light Rain25°C18 mph, E100%10000m1010hPa78%
24-Feb-2024 06:00Overcast Clouds25°C18 mph, E100%10000m1011hPa77%
24-Feb-2024 09:00Light Rain25°C18 mph, E100%10000m1011hPa78%
24-Feb-2024 12:00Overcast Clouds25°C18 mph, E97%10000m1009hPa72%
24-Feb-2024 15:00Light Rain25°C18 mph, SE82%10000m1010hPa78%
24-Feb-2024 18:00Broken Clouds25°C18 mph, SE80%10000m1012hPa75%
24-Feb-2024 21:00Few Clouds25°C16 mph, E24%10000m1011hPa72%
25-Feb-2024 00:00Few Clouds25°C13 mph, SE21%10000m1009hPa72%
25-Feb-2024 03:00Broken Clouds25°C13 mph, SE82%10000m1009hPa75%
25-Feb-2024 06:00Broken Clouds25°C18 mph, SE61%10000m1011hPa77%
25-Feb-2024 09:00Light Rain25°C18 mph, E65%10000m1011hPa80%
25-Feb-2024 12:00Light Rain24°C18 mph, E51%10000m1009hPa84%
25-Feb-2024 15:00Light Rain25°C20 mph, E47%10000m1010hPa73%
25-Feb-2024 18:00Scattered Clouds25°C18 mph, E32%10000m1013hPa73%
25-Feb-2024 21:00Clear Sky25°C16 mph, E6%10000m1012hPa75%
26-Feb-2024 00:00Few Clouds25°C13 mph, E13%10000m1009hPa78%